Regional Weather Roundup
Issued by NWS

Home | Current Version | Previous Version | Graphics & Text | Print | Product List | Glossary On
Versions: 1 2 3 4 5 6 7 8 9 10 11 12 13 14 15 16 17 18 19 20 21 22 23 24 25 26 27 28 29 30 31 32 33 34 35 36 37 38 39 40 41 42 43 44 45 46 47 48 49 50
248
ASUS43 KFSD 122102
RWRSD

WEATHER ROUNDUP FOR SOUTH DAKOTA
NATIONAL WEATHER SERVICE SIOUX FALLS SD
300 PM CST FRI FEB 12 2016

NOTE: "FAIR" INDICATES FEW OR NO CLOUDS BELOW 12,000 FEET WITH NO
SIGNIFICANT WEATHER AND/OR OBSTRUCTIONS TO VISIBILITY.


SDZ001>005-009-010-012>017-122200-
NORTHWEST AND NORTH CENTRAL SOUTH DAKOTA

CITY           SKY/WX    TMP DP  RH WIND       PRES   REMARKS
BUFFALO          N/A     24  17  74 SE15      30.29F WCI  11
FAITH            N/A     21  12  68 E8        30.43F WCI  11
MOBRIDGE       SUNNY     18   5  57 NE5       30.52S WCI  11
$$

SDZ012>016-024>037-041>051-057-063-072>074-122200-
SOUTHWEST AND SOUTH CENTRAL SOUTH DAKOTA

CITY           SKY/WX    TMP DP  RH WIND       PRES   REMARKS
RAPID CTY ARPT FOG       25  24  96 E14       30.36F VSB 1/4 WCI  13
PIERRE         CLOUDY    22  11  62 NE7       30.51F WCI  13
CUSTER         CLOUDY    30  25  81 MISG      30.23F
ELLSWORTH AFB  FRZ DRZL  25  25  99 E13       30.34  VSB 1/2 WCI  13
PHILIP         CLOUDY    26  16  65 E8        30.45F WCI  18
PINE RIDGE     CLOUDY    33  26  75 NE7       30.35F WCI  27
WINNER         CLOUDY    23  13  65 NE6       30.49S WCI  16
$$

SDZ004>011-016>023-039-040-122200-
NORTHEAST SOUTH DAKOTA

CITY           SKY/WX    TMP DP  RH WIND       PRES   REMARKS
ABERDEEN       SUNNY      7  -5  57 N13       30.62S WCI  -9
WATERTOWN      SUNNY      4  -7  60 N16       30.52S WCI -15
BROOKINGS      SUNNY      7  -6  55 N17         N/A  WCI -12
SISSETON         N/A      2  -7  66 N16       30.61R WCI -18
$$

SDZ017-020-022-023-036>040-048>070-122200-
SOUTHEAST SOUTH DAKOTA

CITY           SKY/WX    TMP DP  RH WIND       PRES   REMARKS
SIOUX FALLS    MOSUNNY   11   0  61 N21       30.54S WCI  -8
HURON          SUNNY     11   1  64 N14       30.59S WCI  -5
MITCHELL       SUNNY     14   4  64 N15       30.59S WCI  -1
YANKTON        SUNNY     16   3  57 N12       30.58R WCI   3
$$

ABBREVIATIONS USED IN REMARKS
   TC - TEMPERATURE IN CELSIUS
  WCI - WIND CHILL INDEX
   HX - HEAT INDEX
  VSB - VISIBILITY





USA.gov is the U.S. government's official web portal to all federal, state and local government web resources and services.